Simultaneous Nadir Overpasses (SNOs) Predictions

Prediction of SNOs between GOES-16 and TERRA Satellite Orbit:

Table of predicted SNOs for the next 14.0 days since TLE Epoch: 7/18/2020
Index Date Time (GOES-16) GOES-16 Lat,Lon TERRA Lat,Lon Distance(km) Time Diff (sec)
1 07/18/2020 15:44:53 -0.01, -75.21 0.64, -78.20 340.48 80
2 07/20/2020 15:32:42 -0.01, -75.22 0.01, -75.25 4.05 80
3 07/22/2020 15:17:51 -0.02, -75.23 -0.63, -72.29 333.32 80
4 07/23/2020 03:41:55 0.02, -75.22 -0.43, -77.49 258.13 80
5 07/25/2020 03:27:03 0.03, -75.23 0.15, -74.53 79.89 80
6 07/27/2020 03:14:53 0.03, -75.26 0.80, -71.57 418.44 80
7 07/27/2020 15:38:48 -0.03, -75.28 0.27, -76.73 165.58 80
8 07/29/2020 15:23:57 -0.03, -75.30 -0.38, -73.78 173.62 80
9 07/30/2020 03:48:01 0.02, -75.30 -0.74, -78.97 417.19 80
